Terug naar catalogus

STARLINK-32319

ActiefCommunicatieVLEO
NORAD 61528·PAYLOAD·🇺🇸 United States

Gelanceerd Oct 15, 2024 vanaf Cape Canaveral Space Force Station

Loading…

Volgende Passages (komende 24 uur)

TLE

VersSource: CelesTrak SupGP

Epoch: Sep 14, 2026, 20:53 UTC

1 61528C 24183V   26257.87062500 -.00011181  00000+0 -35963-3 0  2579
2 61528  53.1594 343.0889 0001142  77.8104 355.6894 15.31699978    10

Volg STARLINK-32319 in realtime met AllMySat

Download on the App Store